Probability
0 0 0 0 0 0 0 0 0 0 0 0 0 0 0 0 0 0 3 3 3 6 10 10 10 6 10 10 10 10 16 16 16 19 16 16 16 16 13 13 6 3 3 3
0 0 0 0 0 0 0 0 0 0 0 0 0 0 0 0 0 0 0 0 0 3 6 10 10 10 6 13 13 13 16 16 16 19 19 19 13 13 16 16 10 3 3 3
0 0 0 0 0 0 0 0 0 0 0 0 0 0 0 0 0 0 0 0 0 0 0 3 6 6 10 10 10 10 13 16 19 19 19 16 13 16 13 13 10 6 3 0
0 0 0 0 0 0 0 0 0 0 0 0 0 0 0 0 0 0 3 0 0 6 3 6 10 10 13 10 10 10 10 10 16 19 16 13 13 10 10 13 10 10 3 3
0 0 0 0 0 0 0 0 0 0 0 0 0 0 0 0 0 0 3 3 3 10 10 13 13 13 10 10 13 6 10 3 6 10 13 13 13 13 16 10 10 10 10 3
0 0 0 0 0 0 0 0 0 0 0 0 0 0 0 0 0 0 0 3 6 6 13 13 16 16 10 16 13 13 6 6 6 10 10 13 10 13 13 10 10 10 6 10
0 0 0 0 0 0 0 0 0 0 0 0 0 0 0 0 0 0 0 0 6 6 6 13 13 16 13 13 10 10 10 10 6 6 10 13 13 13 13 13 10 10 6 6
0 0 0 0 0 0 0 0 0 0 0 0 0 0 0 0 0 0 3 6 6 10 6 13 16 16 16 10 6 6 6 10 10 6 10 13 13 13 13 13 13 10 6 6
0 0 0 0 0 0 0 0 0 0 0 0 0 0 0 0 0 0 3 6 3 3 6 13 16 16 16 3 3 3 6 6 10 6 6 10 13 13 13 10 10 6 10 6
0 0 0 0 0 0 0 0 0 0 0 0 0 0 0 0 0 0 3 3 3 0 3 6 6 6 3 0 0 3 3 3 10 10 6 10 10 10 13 13 13 10 6 3
0 0 0 0 0 0 0 0 0 0 0 0 0 0 0 0 0 0 0 3 3 3 0 0 6 6 3 0 0 0 3 3 6 10 10 10 10 10 10 10 6 10 6 3
0 0 0 0 0 0 0 0 0 0 0 0 0 0 0 0 0 0 0 0 3 3 0 0 3 3 3 0 0 0 0 6 6 6 10 6 10 6 6 6 6 6 3 6
0 0 0 0 0 0 0 0 0 0 0 0 0 0 0 0 0 0 0 3 3 3 0 0 0 0 3 0 0 0 3 6 6 6 3 3 6 6 6 6 3 3 3 3
0 0 0 0 0 0 0 0 0 0 0 0 0 0 0 0 0 0 0 3 3 3 0 0 0 3 3 0 0 0 3 6 6 6 3 3 6 6 6 3 3 3 3 0
0 0 0 0 0 0 0 0 0 0 0 0 0 0 0 0 0 0 0 0 3 0 0 0 0 0 0 0 0 0 3 3 3 6 6 3 0 3 3 6 6 3 0 0
0 0 0 0 0 0 0 0 0 0 0 0 0 0 0 0 0 0 0 3 3 3 0 0 0 0 0 0 0 3 6 3 3 3 0 3 3 10 10 6 3 0 3 3
0 0 0 0 0 0 0 0 0 0 0 0 0 0 0 0 0 0 0 3 3 3 3 0 0 0 0 0 0 3 6 6 0 0 0 10 10 10 3 3 3 0 0 3
0 0 0 0 0 0 0 0 0 0 0 0 0 0 0 0 0 0 0 0 3 0 0 0 0 0 0 0 0 3 3 3 0 0 6 3 3 0 3 3 0 3 0 0
0 0 0 0 0 0 0 0 0 0 0 0 0 0 0 0 0 0 0 0 0 3 3 3 0 0 0 0 0 3 3 0 0 0 3 3 3 3 3 3 3 3 0 0
0 0 0 0 0 0 0 0 0 0 0 0 0 0 0 0 0 0 0 0 0 0 3 3 0 0 0 0 3 3 3 0 0 3 0 0 0 3 3 3 3 3 0 0
0 0 0 0 0 0 0 0 0 0 0 0 0 0 0 0 0 0 0 0 3 0 0 0 0 0 0 3 3 0 3 0 3 0 0 0 0 3 3 3 3 3 0 0
0 0 0 0 0 0 0 0 0 0 0 0 0 0 0 0 0 0 0 0 0 0 0 0 0 0 0 0 3 3 0 0 0 0 0 0 0 3 3 3 3 3 0 0
0 0 0 0 0 0 0 0 0 0 0 0 0 0 0 0 0 0 0 0 0 0 0 0 0 0 0 0 0 0 0 0 0 0 0 0 0 0 0 0 0 0 0 0
0 0 0 0 0 0 0 0 0 0 0 0 0 0 0 0 0 0 0 0 0 0 0 0 0 0 0 0 0 0 0 0 0 0 0 0 0 0 0 3 0 0 0 0
0 0 0 0 0 0 0 0 0 0 0 0 0 0 0 0 0 0 0 0 0 0 0 0 0 0 0 0 0 0 0 0 0 0 0 0 0 0 3 0 0 0 0 0
0 0 0 0 0 0 0 0 0 0 0 0 0 0 0 0 0 0 0 0 0 0 0 0 0 0 0 0 0 0 0 0 0 0 0 0 0 0 0 0 0 0 0 0
Height
5823 5825 5826 5827 5828 5829 5830 5830 5831 5831 5831 5832 5832 5833 5833 5833 5834 5834 5835 5835 5836 5836 5837 5837 5837 5838 5838 5838 5838 5838 5838 5838 5838 5838 5838 5838 5838 5838 5838 5837 5837 5836 5836 5835
5820 5822 5823 5823 5824 5825 5825 5826 5827 5827 5827 5828 5828 5829 5830 5830 5830 5831 5831 5831 5832 5833 5833 5834 5834 5834 5834 5835 5834 5834 5835 5835 5835 5835 5835 5835 5835 5835 5835 5834 5834 5833 5833 5832
5816 5818 5818 5819 5820 5821 5821 5822 5823 5823 5824 5824 5825 5826 5826 5826 5826 5827 5827 5828 5828 5829 5829 5830 5830 5831 5831 5831 5831 5831 5831 5831 5831 5832 5832 5832 5832 5832 5832 5831 5831 5830 5830 5829
5812 5813 5814 5815 5816 5817 5818 5818 5819 5819 5820 5820 5821 5822 5822 5822 5823 5823 5824 5824 5824 5825 5825 5826 5826 5827 5827 5827 5827 5827 5828 5828 5828 5828 5828 5828 5828 5828 5828 5828 5827 5827 5827 5826
5808 5809 5810 5811 5812 5812 5814 5814 5815 5815 5815 5816 5817 5818 5819 5818 5818 5819 5819 5820 5820 5820 5821 5821 5822 5823 5823 5823 5823 5823 5824 5824 5824 5824 5824 5824 5824 5824 5824 5824 5824 5824 5823 5823
5804 5804 5805 5806 5807 5808 5809 5810 5810 5810 5811 5812 5812 5813 5814 5814 5814 5815 5815 5815 5815 5816 5816 5817 5817 5818 5818 5819 5819 5819 5819 5820 5820 5820 5820 5820 5820 5820 5820 5820 5820 5820 5819 5819
5799 5800 5801 5802 5802 5803 5804 5805 5806 5806 5806 5807 5807 5808 5810 5809 5810 5810 5810 5810 5811 5811 5811 5812 5812 5813 5813 5814 5814 5814 5815 5815 5815 5815 5815 5815 5815 5815 5815 5815 5815 5815 5815 5815
5794 5795 5796 5797 5798 5798 5799 5801 5802 5802 5803 5803 5802 5803 5805 5805 5805 5805 5806 5806 5806 5806 5807 5807 5807 5808 5808 5809 5809 5809 5809 5810 5810 5810 5810 5811 5811 5811 5811 5811 5811 5811 5810 5810
5790 5791 5791 5792 5793 5794 5794 5795 5797 5797 5797 5797 5797 5799 5800 5800 5800 5801 5801 5801 5801 5802 5802 5802 5802 5802 5803 5803 5804 5804 5804 5805 5805 5805 5805 5806 5806 5806 5806 5806 5806 5806 5806 5805
5785 5786 5786 5787 5788 5788 5790 5790 5791 5791 5791 5792 5793 5794 5795 5795 5795 5796 5796 5796 5797 5797 5797 5797 5797 5797 5797 5798 5798 5798 5799 5799 5800 5800 5800 5800 5800 5801 5801 5801 5801 5801 5800 5800
5779 5781 5781 5782 5782 5783 5784 5785 5785 5785 5786 5787 5788 5791 5790 5790 5790 5790 5791 5791 5791 5791 5791 5791 5792 5792 5792 5792 5793 5793 5793 5794 5794 5795 5794 5795 5795 5795 5795 5795 5795 5795 5795 5794
5773 5775 5775 5776 5777 5777 5778 5779 5780 5781 5781 5781 5782 5786 5784 5784 5784 5785 5785 5785 5786 5786 5786 5786 5786 5786 5786 5787 5787 5787 5788 5788 5788 5789 5789 5789 5789 5789 5789 5789 5789 5789 5789 5789
5767 5768 5770 5770 5772 5772 5772 5773 5773 5774 5775 5775 5776 5780 5778 5779 5779 5779 5779 5780 5780 5780 5780 5780 5780 5780 5781 5781 5781 5782 5782 5782 5782 5783 5782 5783 5783 5783 5783 5783 5783 5783 5783 5783
5761 5762 5764 5765 5765 5765 5765 5766 5766 5767 5768 5769 5770 5772 5773 5772 5773 5773 5773 5774 5774 5774 5774 5774 5774 5774 5775 5775 5775 5775 5776 5776 5776 5776 5776 5777 5777 5777 5777 5776 5777 5777 5777 5776
5754 5755 5756 5757 5758 5758 5759 5760 5760 5761 5761 5763 5764 5765 5766 5766 5767 5767 5767 5768 5768 5768 5768 5768 5768 5768 5769 5769 5769 5769 5770 5770 5770 5770 5770 5770 5770 5770 5770 5770 5770 5770 5770 5770
5748 5749 5749 5750 5751 5751 5752 5753 5754 5754 5755 5756 5757 5758 5759 5759 5760 5760 5761 5761 5762 5762 5762 5762 5762 5762 5762 5762 5763 5763 5763 5763 5763 5764 5764 5764 5764 5764 5764 5764 5764 5764 5764 5764
5742 5742 5743 5744 5744 5744 5745 5747 5747 5747 5748 5749 5749 5752 5752 5752 5753 5754 5754 5755 5755 5755 5755 5755 5755 5756 5756 5756 5756 5756 5756 5756 5757 5757 5757 5757 5757 5757 5758 5758 5758 5758 5758 5758
5736 5736 5736 5737 5738 5737 5741 5740 5740 5740 5741 5741 5742 5743 5744 5745 5745 5746 5747 5747 5748 5748 5748 5749 5749 5749 5749 5749 5749 5750 5750 5750 5750 5750 5750 5751 5751 5751 5751 5751 5751 5751 5751 5751
5730 5730 5730 5730 5730 5731 5733 5733 5732 5733 5733 5734 5734 5735 5736 5737 5738 5739 5740 5740 5741 5741 5741 5741 5742 5742 5742 5742 5742 5742 5743 5743 5743 5743 5744 5744 5744 5744 5744 5745 5744 5744 5745 5745
5724 5724 5725 5724 5724 5725 5727 5726 5725 5726 5726 5727 5727 5727 5728 5729 5730 5732 5732 5733 5733 5734 5734 5734 5734 5735 5735 5735 5735 5735 5735 5736 5736 5736 5737 5737 5737 5737 5737 5738 5738 5738 5738 5737
5717 5717 5718 5717 5717 5717 5719 5718 5719 5720 5720 5720 5719 5720 5720 5721 5722 5724 5724 5724 5725 5726 5726 5726 5727 5727 5727 5727 5727 5728 5728 5728 5729 5729 5729 5730 5730 5730 5730 5730 5730 5730 5730 5730
5711 5711 5711 5711 5710 5713 5711 5711 5712 5712 5712 5712 5712 5712 5712 5713 5714 5715 5715 5716 5717 5717 5718 5718 5718 5719 5719 5719 5719 5720 5721 5721 5721 5721 5721 5722 5722 5722 5722 5722 5722 5722 5722 5722
5704 5705 5704 5705 5706 5705 5703 5703 5704 5704 5704 5704 5704 5705 5705 5705 5706 5707 5707 5708 5708 5709 5709 5710 5710 5711 5711 5711 5711 5712 5712 5713 5713 5713 5713 5713 5714 5714 5714 5714 5714 5714 5713 5713
5698 5697 5697 5697 5697 5697 5696 5696 5696 5696 5697 5697 5697 5697 5697 5697 5698 5698 5699 5699 5700 5700 5701 5701 5701 5702 5702 5702 5703 5703 5704 5704 5704 5705 5705 5705 5705 5705 5706 5706 5705 5705 5705 5704
5691 5690 5689 5689 5690 5689 5689 5689 5689 5689 5689 5689 5689 5689 5689 5689 5690 5690 5690 5690 5691 5692 5692 5692 5692 5693 5693 5693 5694 5694 5695 5695 5695 5696 5696 5696 5696 5696 5696 5697 5697 5696 5696 5696
5683 5683 5682 5682 5682 5682 5682 5681 5681 5681 5681 5681 5681 5681 5681 5681 5681 5681 5681 5682 5682 5682 5683 5683 5683 5684 5684 5684 5685 5685 5685 5685 5686 5687 5687 5687 5687 5687 5687 5687 5687 5687 5687 5687
Wind_Speed
12 12 12 13 13 13 14 14 15 15 14 15 14 15 14 14 14 14 14 14 14 14 14 15 15 14 14 13 13 14 13 12 12 12 12 12 12 12 12 12 12 12 12 12
13 13 13 13 13 13 14 14 15 15 14 15 15 15 15 15 14 14 14 15 15 14 14 15 15 15 14 14 14 14 13 13 13 13 13 13 13 13 13 13 13 12 12 12
14 13 14 14 14 14 14 15 15 16 15 15 15 15 16 15 15 15 15 15 16 16 16 16 16 16 16 15 15 14 14 13 14 14 14 15 15 15 14 14 13 13 13 13
14 14 14 15 14 15 15 15 16 16 16 16 16 16 16 16 15 15 15 16 16 17 17 17 17 17 17 17 16 15 14 14 14 14 15 16 15 15 15 14 14 14 14 14
15 15 16 16 15 15 15 15 16 16 16 17 17 17 16 16 17 16 16 16 16 17 17 17 17 17 17 17 17 16 16 16 16 16 16 16 16 15 15 15 15 15 14 14
16 16 16 16 16 16 16 16 16 16 17 18 17 18 17 17 17 17 17 16 16 16 17 17 18 18 18 18 18 18 17 17 17 17 17 16 16 16 15 15 16 16 16 15
17 17 17 17 17 17 17 16 16 17 18 18 18 19 18 17 16 17 17 17 17 17 17 18 18 19 19 19 19 19 18 19 19 18 17 17 17 16 16 15 16 16 16 16
18 18 18 18 18 17 17 17 17 17 18 18 18 18 17 17 16 17 17 17 17 17 17 17 19 19 19 19 19 19 19 19 18 18 18 17 17 16 16 16 16 17 17 17
18 18 18 18 18 18 18 18 18 18 19 19 19 18 17 17 17 17 17 17 17 17 17 18 19 19 19 19 19 19 19 19 18 18 18 18 17 17 17 17 17 17 17 18
18 19 19 19 19 19 18 19 19 19 19 20 20 19 17 17 17 17 18 18 18 18 18 18 18 19 20 20 19 19 19 19 19 19 18 18 18 19 18 18 18 18 18 19
18 18 19 19 19 19 19 19 20 21 21 21 21 20 18 18 17 17 18 18 18 18 18 18 18 18 19 20 20 20 20 20 20 20 19 20 19 19 19 19 19 19 19 19
18 19 19 20 20 20 20 20 20 21 22 22 21 21 19 18 19 19 18 18 19 19 19 19 19 19 19 19 20 20 20 20 20 20 20 20 20 20 20 20 19 20 20 20
19 20 20 20 20 21 21 21 21 21 22 22 22 21 20 18 18 19 19 19 19 19 19 19 19 19 19 19 20 20 20 20 20 20 20 20 20 20 21 20 19 19 20 20
20 21 21 20 21 21 21 22 22 22 22 22 22 21 21 21 19 20 20 19 19 19 19 20 20 20 20 20 20 20 20 20 20 20 20 19 19 20 21 20 20 20 19 19
20 21 21 21 21 22 22 23 23 23 23 23 21 22 21 22 21 21 21 20 19 18 18 18 19 20 20 20 21 21 21 21 20 20 20 20 20 21 20 20 20 20 20 20
21 21 21 21 22 22 23 23 24 24 24 24 23 23 22 22 22 22 21 21 20 19 19 19 19 20 20 20 21 21 21 21 21 21 22 22 21 21 20 21 21 21 21 21
20 21 22 21 22 23 23 22 23 23 24 25 25 24 23 23 23 23 23 22 21 20 20 20 20 20 20 21 21 22 22 22 22 22 22 22 21 21 21 22 22 22 22 21
20 21 22 22 22 23 21 21 22 23 24 25 25 25 25 24 23 23 24 24 22 22 22 21 21 20 20 21 22 22 22 22 22 23 22 22 22 21 22 21 21 22 22 21
20 20 21 22 23 23 21 21 22 23 24 24 25 25 25 25 25 24 24 24 23 23 23 22 22 22 22 22 22 22 22 23 23 23 23 22 22 22 22 21 21 22 22 22
21 21 22 23 23 23 22 22 22 23 24 23 23 23 24 25 25 24 25 25 25 24 24 24 23 23 22 23 23 23 23 23 23 23 23 23 23 23 23 23 23 23 23 24
21 21 22 22 23 24 23 23 22 22 22 22 23 23 23 25 25 24 24 25 25 26 26 25 24 23 23 23 24 24 24 24 24 24 24 24 24 24 25 25 25 25 25 25
21 22 22 22 23 23 23 23 23 23 22 23 23 24 24 25 25 25 25 25 25 25 25 25 25 24 24 24 25 25 25 25 25 25 25 25 25 25 25 26 26 26 26 26
21 22 22 23 23 23 23 23 24 24 23 23 24 24 25 25 25 25 25 25 26 26 27 26 26 26 26 26 26 25 25 26 26 26 26 26 26 26 26 27 27 27 27 26
22 22 23 23 23 24 24 24 23 23 24 23 24 24 25 25 25 25 26 26 26 26 27 27 27 27 27 27 27 27 27 27 27 27 27 27 27 27 27 27 28 28 28 28
22 23 23 23 23 25 25 25 25 24 24 24 24 24 24 24 25 25 25 26 26 26 27 27 27 28 28 28 28 28 28 29 28 28 28 27 27 27 27 28 28 29 29 29
22 23 23 23 23 24 24 25 25 25 24 24 24 23 24 24 25 25 25 26 26 27 27 28 28 28 28 29 29 29 29 29 29 29 29 28 29 30 30 30 30 30 30 30
Wind_Direction
242 244 248 251 252 254 255 258 259 261 260 260 259 256 253 253 254 254 255 256 256 258 257 256 256 258 261 263 265 266 266 261 257 259 260 262 264 264 265 266 267 268 271 273
245 247 249 250 251 254 257 259 259 261 259 259 257 257 255 253 255 256 256 255 256 257 256 256 256 257 259 263 265 265 264 262 261 260 261 264 265 264 263 266 268 270 271 273
248 249 250 250 251 255 257 259 259 259 259 260 259 257 257 255 255 255 255 256 256 256 257 258 257 258 261 264 266 264 263 264 265 263 264 266 267 265 264 266 268 269 271 273
248 249 250 250 252 256 258 259 259 259 259 260 259 257 255 257 257 257 257 257 258 258 258 257 257 260 261 263 265 264 262 262 265 266 268 267 266 264 262 263 265 268 270 272
250 251 252 252 253 255 258 261 261 259 259 260 260 258 256 255 256 258 260 260 261 260 259 258 259 260 260 261 261 262 261 261 263 265 266 266 263 262 260 260 263 266 269 273
250 251 253 253 255 257 258 259 259 259 260 259 258 257 255 254 257 259 260 261 262 261 259 259 258 258 259 260 261 263 264 262 262 264 264 265 263 262 261 260 262 264 267 270
251 251 252 252 253 255 256 256 258 259 259 259 256 255 255 256 256 259 262 262 262 263 262 259 259 260 260 261 262 261 261 262 262 262 262 264 264 261 259 260 263 265 266 267
254 254 254 253 254 256 256 254 253 255 257 258 257 256 255 256 259 259 260 262 263 264 263 262 261 260 261 262 262 262 262 262 261 260 261 262 263 262 262 263 265 267 267 268
254 256 256 255 256 258 258 255 254 255 257 256 257 257 255 256 258 258 259 262 263 264 265 265 264 262 261 262 261 262 261 262 262 261 260 261 262 262 264 264 265 266 267 269
255 257 257 258 258 258 257 255 254 256 258 258 260 259 259 257 257 257 258 261 263 265 266 266 264 263 262 261 260 260 260 263 263 263 260 259 261 261 262 263 265 266 266 269
256 257 258 257 257 257 256 255 256 257 260 260 260 260 259 258 258 257 259 262 264 265 267 267 265 264 262 260 259 260 263 263 263 263 261 260 261 261 262 263 264 264 266 267
258 258 258 258 258 258 258 258 259 259 261 261 261 262 261 262 261 260 261 262 264 266 267 267 266 264 261 260 260 260 261 262 262 263 262 260 262 263 263 263 263 264 266 267
259 259 260 259 258 256 257 257 256 257 260 261 260 262 260 262 262 262 262 263 264 265 265 265 264 262 261 261 260 259 259 261 261 262 262 262 261 260 262 263 264 265 265 267
261 260 259 259 259 258 258 256 255 255 257 259 260 261 260 260 260 262 262 264 265 264 263 262 261 260 258 259 260 258 260 261 261 261 261 261 260 261 263 263 263 264 264 266
263 261 260 258 258 259 259 257 255 256 258 259 260 261 261 261 261 261 260 261 264 265 263 262 260 259 258 259 260 260 261 262 261 261 261 260 261 264 265 263 263 263 264 266
264 264 263 260 259 260 259 257 257 257 257 258 260 261 263 264 262 260 258 258 261 262 265 264 262 262 260 261 261 262 263 262 261 261 260 260 263 265 265 264 265 264 266 268
265 265 265 264 262 261 260 260 259 259 258 260 260 262 262 263 261 259 259 260 260 261 265 265 263 262 262 262 264 265 265 264 261 261 263 261 263 264 264 265 266 266 266 269
264 266 267 267 266 266 265 262 261 261 261 262 261 260 260 261 261 260 259 260 260 262 264 263 261 261 261 261 262 263 264 263 263 263 263 264 263 263 263 264 266 266 266 268
265 265 265 266 268 270 268 267 266 264 263 263 263 261 260 261 260 260 259 259 260 261 264 263 261 260 261 262 262 264 264 263 263 262 263 263 264 262 261 264 265 266 267 269
265 264 265 267 268 269 270 270 269 267 266 264 264 263 261 261 261 260 260 260 260 261 263 263 262 262 262 262 263 263 263 263 262 263 263 263 264 262 263 265 266 267 268 271
268 266 266 268 268 269 270 270 270 269 268 266 265 265 264 262 261 261 260 261 261 263 265 265 265 264 262 262 263 262 262 262 263 264 264 265 266 264 264 265 267 268 269 270
270 269 268 267 270 271 271 270 269 270 269 267 266 266 265 263 262 261 260 259 259 262 264 264 264 264 264 264 264 263 262 262 263 264 265 265 266 265 265 268 269 270 270 269
272 271 269 267 269 270 271 271 270 269 268 268 267 267 267 265 264 263 261 261 259 261 263 264 264 263 264 264 264 264 262 262 263 264 265 267 266 266 266 269 270 270 270 269
273 272 270 270 270 269 270 271 270 269 268 269 268 269 268 267 267 266 263 261 260 261 263 264 265 265 265 265 264 263 262 262 262 264 265 266 267 266 267 269 270 270 270 270
276 273 273 273 271 271 272 271 269 269 269 269 268 268 267 268 268 267 265 264 263 263 264 265 266 266 266 265 264 265 264 262 261 263 264 265 268 269 269 271 271 271 270 270
278 275 274 273 272 271 271 271 270 270 271 271 269 268 267 268 268 268 267 266 264 263 265 266 266 266 266 265 265 265 266 264 263 265 266 267 268 268 269 271 271 271 270 271